BREEZE-M DEB, 38631

Orbit data source: Space-Track

BREEZE-M DEB, 38631 is space debris in HEO originally from a launch on Fri, 14 Mar 2008 UTC launched from the Tyuratam Missile And Space Complex (TTMTR). Debris objects in space refer to the collection of defunct objects orbiting the Earth. Examples of debris include non-operational satellites, rocket bodies, and fragments generated from explosions, collisions, or faulty payload assembly.

Loading next visibility...
Identifier
38631, 2008-011CE
Orbit
HEO
Country
Flag of CISCIS
Related business
Manufacturer
Unknown
Mission
Spacecraft
Bus & Motor
Unknown
Mass
Unknown
Launch date (UTC)
2008-03-14 (18 years ago)
Launch vehicle
Unknown
Launch site
Tyuratam Missile And Space Complex (TTMTR)
Object type
Payload
Rocket body
Debris
Shape & HBR
Unknown shape, 0.2 m
Radar Cross Section
Medium (>0.1 m² and <1 m²)

Expand to show TLE details & history
Last TLE update: 7 months ago

TLE from 7 months ago
0 BREEZE-M DEB
1 38631U 08011CE  25314.34527934  .00010664  00000-0  30305-1 0  9992
2 38631  49.2384 308.0818 6410555 252.2397  30.7027  3.29281374168325
Epoch: 2025-11-10T08:17Z
TLE epoch observation values (Epoch: 2025-11-10T08:17:12.134Z)
Latitude
-1.40944°
Longitude
132.79638°
Altitude
7,256.221 km
Speed
6.131 km/s
True Right ascension
20h 27m 22s
True Declination
-1° 24' 18"
Sunlit
Object was in daylight at epoch
Visualization orbit readout
Latitude
Unknown
Longitude
Unknown
Altitude
Unknown
Speed
Unknown
Apparent Right ascension
Unknown
Apparent Declination
Unknown
Sunlit
N/A
Visualization observer readout
Local Sidereal Time
10:57:26
Azimuth
Unknown
Elevation
Unknown
Doppler factor
Unknown
Orbital elements
Apogee altitude
24,942.467 km
Perigee altitude
472.551 km
Semi-major axis
19,085.646 km
Eccentricity
0.64106
Inclination
49.2384°
RAAN
308.0818°
Arg. of periapsis
252.2397°
True anomaly
105.94876°
Mean anomaly
30.7027°
Eccentric anomaly
63.60278°
Mean motion
0.82316 °/min
Orbital period
437.34 mins
BSTAR
0.030305
Loading maneuver chart data...
Computing Atmospheric mass density...
Loading historical data...
Loading historical data...
Loading historical data...
Loading historical data...
Loading historical data...
Loading historical data...
Loading historical data...

Documentation

Showing up to 5 results
|